EW5196 Weather Reports


time (UTC)temp
C
wind
direction
speed
KPH
gust
KPH
rain 1hr
cm
rain 24hr
cm
rain mn
cm
humidity
%
barometer
mb
20260504202539 25 152 3.2 8.0 0.00 0.00 0.00 30 1013.3
20260504202037 25 189 1.6 8.0 0.00 0.00 0.00 31 1013.3
20260504201533 25 201 3.2 8.0 0.00 0.00 0.00 30 1013.4
20260504201032 25 45 3.2 4.8 0.00 0.00 0.00 32 1013.1
20260504200527 26 216 9.7 9.7 0.00 0.00 0.00 29 1013.3
20260504200024 25 202 3.2 3.2 0.00 0.00 0.00 30 1013.4
20260504195520 25 191 1.6 3.2 0.00 0.00 0.00 32 1013.2
20260504195017 25 164 3.2 4.8 0.00 0.00 0.00 32 1013.4
20260504194514 26 6 1.6 4.8 0.00 0.00 0.00 29 1013.5
20260504194009 26 144 6.4 8.0 0.00 0.00 0.00 29 1013.7
20260504193506 25 156 4.8 6.4 0.00 0.00 0.00 29 1013.7
20260504193005 26 125 3.2 3.2 0.00 0.00 0.00 30 1013.7
20260504192502 25 128 3.2 8.0 0.00 0.00 0.00 29 1013.8
20260504192001 25 183 3.2 3.2 0.00 0.00 0.00 28 1013.9
20260504191458 25 199 1.6 4.8 0.00 0.00 0.00 31 1014.2
20260504190953 25 161 1.6 3.2 0.00 0.00 0.00 31 1014.3
20260504190449 25 309 1.6 6.4 0.00 0.00 0.00 33 1014.2
20260504185946 25 119 0.0 6.4 0.00 0.00 0.00 32 1014.5
20260504185443 25 172 1.6 8.0 0.00 0.00 0.00 29 1014.8
20260504184939 24 157 4.8 8.0 0.00 0.00 0.00 31 1014.7
20260504184435 24 68 0.0 4.8 0.00 0.00 0.00 32 1014.8
20260504183931 24 225 0.0 4.8 0.00 0.00 0.00 31 1014.8
20260504183429 24 123 1.6 6.4 0.00 0.00 0.00 33 1014.8
20260504182926 23 201 1.6 8.0 0.00 0.00 0.00 30 1014.9
20260504182423 23 145 4.8 8.0 0.00 0.00 0.00 30 1014.9
20260504181920 23 155 4.8 6.4 0.00 0.00 0.00 31 1014.8
20260504181417 23 132 3.2 4.8 0.00 0.00 0.00 33 1015.0
20260504180916 23 125 4.8 6.4 0.00 0.00 0.00 31 1015.0
20260504180415 23 86 4.8 4.8 0.00 0.00 0.00 33 1015.1
20260504175912 22 149 0.0 4.8 0.00 0.00 0.00 34 1014.9
20260504175409 22 88 3.2 4.8 0.00 0.00 0.00 34 1015.3
20260504174907 22 156 4.8 4.8 0.00 0.00 0.00 35 1015.0
20260504174404 22 146 3.2 4.8 0.00 0.00 0.00 34 1015.0
20260504173901 22 96 0.0 3.2 0.00 0.00 0.00 34 1015.0
20260504173357 22 185 3.2 4.8 0.00 0.00 0.00 33 1015.3
20260504172855 22 83 0.0 4.8 0.00 0.00 0.00 35 1014.9
20260504172351 22 131 3.2 4.8 0.00 0.00 0.00 34 1015.0
20260504171847 22 127 1.6 4.8 0.00 0.00 0.00 33 1015.3
20260504171344 22 136 4.8 8.0 0.00 0.00 0.00 30 1015.2
20260504170842 22 140 3.2 4.8 0.00 0.00 0.00 32 1015.5
20260504170338 22 167 0.0 4.8 0.00 0.00 0.00 33 1015.5
20260504160256 21 107 3.2 6.4 0.00 0.00 0.00 34 1015.8
20260504150722 20 177 1.6 3.2 0.00 0.00 0.00 36 1016.6
20260504150219 20 137 1.6 4.8 0.00 0.00 0.00 37 1016.6
20260504141148 18 52 0.0 3.2 0.00 0.00 0.00 44 1016.9
20260504140645 18 183 0.0 4.8 0.00 0.00 0.00 45 1016.9
20260504140140 17 138 3.2 4.8 0.00 0.00 0.00 45 1017.1
20260504130609 15 144 3.2 6.4 0.00 0.00 0.00 52 1017.2
20260504130105 13 148 4.8 6.4 0.00 0.00 0.00 55 1017.4
20260504110445 8 152 3.2 4.8 0.00 0.00 0.00 81 1018.1
20260504100407 9 147 3.2 3.2 0.00 0.00 0.00 66 1017.8
20260504081800 10 151 4.8 4.8 0.00 0.00 0.00 64 1018.2
20260504081256 10 132 3.2 4.8 0.00 0.00 0.00 66 1018.2
20260504080753 9 119 3.2 4.8 0.00 0.00 0.00 65 1018.2
20260504080249 9 140 3.2 4.8 0.00 0.00 0.00 67 1018.0
20260504070217 7 152 1.6 3.2 0.00 0.00 0.00 80 1018.0
20260504060137 6 167 3.2 4.8 0.00 0.00 0.00 85 1018.2
20260504050606 5 142 3.2 3.2 0.00 0.00 0.00 86 1018.1
20260504045559 6 139 3.2 3.2 0.00 0.00 0.00 85 1018.4
20260504045054 5 149 3.2 3.2 0.00 0.00 0.00 84 1018.0
20260504044553 5 145 3.2 3.2 0.00 0.00 0.00 85 1018.1
20260504044049 5 152 3.2 3.2 0.00 0.00 0.00 86 1018.3
20260504043546 5 150 3.2 4.8 0.00 0.00 0.00 85 1018.2
20260504043043 6 146 3.2 3.2 0.00 0.00 0.00 85 1018.2
20260504042540 6 143 3.2 3.2 0.00 0.00 0.00 86 1018.1
20260504042038 6 143 3.2 4.8 0.00 0.00 0.00 86 1018.3
20260504041533 6 139 3.2 3.2 0.00 0.00 0.00 87 1018.1
20260504041029 6 160 3.2 4.8 0.00 0.00 0.00 86 1018.3
20260504040527 6 153 4.8 4.8 0.00 0.00 0.00 86 1018.2
20260504040024 6 148 3.2 4.8 0.00 0.00 0.00 84 1018.0
20260504035521 6 136 3.2 3.2 0.00 0.00 0.00 85 1018.0
20260504035017 6 135 1.6 3.2 0.00 0.00 0.00 85 1018.2
20260504034515 6 127 3.2 3.2 0.00 0.00 0.00 84 1018.1
20260504034011 6 130 3.2 3.2 0.00 0.00 0.00 81 1017.9
20260504033509 6 141 3.2 3.2 0.00 0.00 0.00 80 1018.3
20260504033007 6 140 3.2 3.2 0.00 0.00 0.00 80 1018.0
20260504032503 6 157 3.2 3.2 0.00 0.00 0.00 81 1018.2
20260504032000 6 149 3.2 3.2 0.00 0.00 0.00 81 1018.1
20260504031456 6 137 3.2 4.8 0.00 0.00 0.00 80 1018.2
20260504030953 6 140 3.2 3.2 0.00 0.00 0.00 80 1018.1
20260504030451 7 149 4.8 4.8 0.00 0.00 0.00 81 1018.1
20260504025946 7 143 3.2 4.8 0.00 0.00 0.00 80 1018.0
20260504025443 7 145 3.2 3.2 0.00 0.00 0.00 79 1017.9
20260504024940 7 140 3.2 4.8 0.00 0.00 0.00 80 1018.2
20260504024437 7 142 3.2 4.8 0.00 0.00 0.00 79 1018.0
20260504023934 7 140 3.2 3.2 0.00 0.00 0.00 80 1018.1
20260504023431 7 145 3.2 3.2 0.00 0.00 0.00 80 1018.0
20260504022926 7 135 3.2 3.2 0.00 0.00 0.00 79 1018.1
20260504022423 7 138 3.2 3.2 0.00 0.00 0.00 79 1017.8
20260504021920 7 132 3.2 4.8 0.00 0.00 0.00 77 1018.0
20260504021417 7 137 3.2 3.2 0.00 0.00 0.00 78 1018.0
20260504020914 7 129 3.2 3.2 0.00 0.00 0.00 78 1017.9
20260504020411 8 136 3.2 3.2 0.00 0.00 0.00 78 1018.0
20260504015907 8 123 1.6 3.2 0.00 0.00 0.00 77 1017.7
20260504015403 8 136 3.2 3.2 0.00 0.00 0.00 76 1017.6
20260504014859 8 132 1.6 3.2 0.00 0.00 0.00 74 1017.7
20260504014355 8 136 3.2 3.2 0.00 0.00 0.00 74 1017.8
20260504013853 8 123 3.2 3.2 0.00 0.00 0.00 77 1017.6
20260504013351 8 129 1.6 3.2 0.00 0.00 0.00 75 1017.9
20260504012847 8 130 1.6 3.2 0.00 0.00 0.00 72 1017.8
20260504012345 9 132 3.2 3.2 0.00 0.00 0.00 73 1017.7
20260504011842 9 134 3.2 3.2 0.00 0.00 0.00 74 1017.7
20260504011339 9 134 3.2 3.2 0.00 0.00 0.00 71 1017.8
20260504010835 10 137 3.2 4.8 0.00 0.00 0.00 71 1017.4
20260504010330 10 129 3.2 3.2 0.00 0.00 0.00 71 1017.6
20260504005827 10 130 3.2 4.8 0.00 0.00 0.00 71 1017.8
20260504005324 10 145 3.2 3.2 0.00 0.00 0.00 71 1017.6
20260504004822 10 134 3.2 3.2 0.00 0.00 0.00 70 1017.5
20260504004319 11 134 1.6 3.2 0.00 0.00 0.00 67 1017.5
20260504003815 11 143 3.2 3.2 0.00 0.00 0.00 66 1017.4
20260504003313 11 141 3.2 3.2 0.00 0.00 0.00 67 1017.5
20260504002809 11 137 1.6 3.2 0.00 0.00 0.00 62 1017.4
20260504002306 12 140 3.2 3.2 0.00 0.00 0.00 58 1017.5
20260504001804 12 148 1.6 3.2 0.00 0.00 0.00 61 1017.3
20260504001301 12 142 3.2 3.2 0.00 0.00 0.00 55 1017.3
20260504000757 12 144 3.2 3.2 0.00 0.00 0.00 49 1017.3
20260504000254 13 140 3.2 3.2 0.00 0.00 0.00 59 1017.1
20260503235752 13 139 3.2 4.8 0.00 0.00 0.00 55 1017.0
20260503235249 14 139 1.6 3.2 0.00 0.00 0.00 48 1017.0
20260503234747 14 135 3.2 3.2 0.00 0.00 0.00 44 1017.1
20260503234244 15 136 1.6 3.2 0.00 0.00 0.00 47 1017.0
20260503233736 15 134 1.6 3.2 0.00 0.00 0.00 43 1016.9
20260503233232 15 141 3.2 3.2 0.00 0.00 0.00 39 1017.1
20260503232729 15 137 3.2 3.2 0.00 0.00 0.00 38 1016.9
20260503232226 16 138 3.2 3.2 0.00 0.00 0.00 42 1017.1
20260503231724 16 138 3.2 3.2 0.00 0.00 0.00 36 1017.0
20260503231220 16 137 3.2 3.2 0.00 0.00 0.00 33 1017.1
20260503230717 16 134 3.2 3.2 0.00 0.00 0.00 34 1016.9
20260503230214 16 135 3.2 4.8 0.00 0.00 0.00 33 1016.9
20260503225711 16 161 3.2 4.8 0.00 0.00 0.00 33 1016.9
20260503225211 17 139 3.2 3.2 0.00 0.00 0.00 32 1016.8
20260503224709 17 140 4.8 4.8 0.00 0.00 0.00 31 1017.0
20260503224207 17 144 3.2 3.2 0.00 0.00 0.00 31 1017.0
20260503223704 17 148 1.6 6.4 0.00 0.00 0.00 28 1017.0
20260503223201 17 170 3.2 4.8 0.00 0.00 0.00 28 1017.0
20260503222658 17 164 3.2 8.0 0.00 0.00 0.00 28 1016.9
20260503222155 18 165 3.2 4.8 0.00 0.00 0.00 28 1017.2
20260503221654 18 146 1.6 4.8 0.00 0.00 0.00 26 1017.0
20260503221151 18 137 6.4 8.0 0.00 0.00 0.00 26 1017.2
20260503220648 18 134 3.2 6.4 0.00 0.00 0.00 26 1017.0
20260503220144 18 154 3.2 4.8 0.00 0.00 0.00 29 1017.3
20260503215641 17 153 4.8 8.0 0.00 0.00 0.00 28 1017.0
20260503215137 17 142 3.2 3.2 0.00 0.00 0.00 29 1017.3
20260503214637 17 138 3.2 4.8 0.00 0.00 0.00 28 1017.3
20260503214132 17 124 4.8 8.0 0.00 0.00 0.00 27 1017.2
20260503213626 17 163 4.8 8.0 0.00 0.00 0.00 27 1017.2
20260503213121 17 129 3.2 4.8 0.00 0.00 0.00 28 1017.2
20260503212620 17 118 3.2 9.7 0.00 0.00 0.00 27 1017.2
20260503212117 17 145 6.4 8.0 0.00 0.00 0.00 27 1017.4
20260503211615 17 180 6.4 8.0 0.00 0.00 0.00 25 1017.3
20260503211110 17 201 3.2 4.8 0.00 0.00 0.00 26 1017.3
20260503210606 17 142 4.8 9.7 0.00 0.00 0.00 26 1017.2
20260503205559 17 112 3.2 4.8 0.00 0.00 0.00 25 1017.2
20260503205055 17 209 4.8 8.0 0.00 0.00 0.00 24 1017.2
20260503204553 17 156 3.2 8.0 0.00 0.00 0.00 26 1017.3
20260503204050 17 139 3.2 9.7 0.00 0.00 0.00 29 1017.0
20260503203547 17 109 4.8 4.8 0.00 0.00 0.00 28 1016.9
20260503203044 17 131 1.6 4.8 0.00 0.00 0.00 30 1017.1